• In Deutschland
  • Länderverzeichnis
  • Für 7 Tage
  • Wassertemperatur
  • Satellitenkarten
  • Wetterkarte
  • Widgets
  • user-avatar
    Anmelden

    Stündliche Wetter Uige

    Heute, 23 September, Samstag

    Zeit Temperatur Niederschläge Wind Luftdruck Luftfeuchtigkeit
    00:00 +24°C° 0,2 mm 1 m/S 692 mmHg 82%
    01:00 +23°C° 0 mm 1 m/S 692 mmHg 83%
    02:00 +23°C° 0 mm 1 m/S 691 mmHg 86%
    03:00 +22°C° 0 mm 1 m/S 691 mmHg 88%
    04:00 +22°C° 0 mm 1 m/S 691 mmHg 91%
    05:00 +22°C° 0 mm 1 m/S 691 mmHg 89%
    06:00 +22°C° 0 mm 1 m/S 692 mmHg 87%
    07:00 +23°C° 0 mm 1 m/S 692 mmHg 85%
    08:00 +24°C° 0 mm 1 m/S 692 mmHg 77%
    09:00 +26°C° 0 mm 1 m/S 693 mmHg 70%
    10:00 +27°C° 0 mm 1 m/S 693 mmHg 62%
    11:00 +30°C° 0 mm 1 m/S 693 mmHg 53%
    12:00 +33°C° 0 mm 1 m/S 692 mmHg 43%
    13:00 +34°C° 0 mm 1 m/S 692 mmHg 39%
    14:00 +33°C° 0 mm 1 m/S 692 mmHg 40%
    15:00 +33°C° 0 mm 1 m/S 691 mmHg 41%
    16:00 +32°C° 0 mm 1 m/S 691 mmHg 42%
    17:00 +31°C° 0 mm 1 m/S 691 mmHg 47%
    18:00 +30°C° 0 mm 2 m/S 691 mmHg 51%
    19:00 +29°C° 0 mm 2 m/S 692 mmHg 55%
    20:00 +27°C° 0,1 mm 2 m/S 692 mmHg 60%
    21:00 +26°C° 0,1 mm 2 m/S 692 mmHg 66%
    22:00 +25°C° 0,1 mm 2 m/S 693 mmHg 72%
    23:00 +24°C° 0 mm 2 m/S 693 mmHg 75%

    Morgen, 24 September, Sonntag

    Zeit Temperatur Niederschläge Wind Luftdruck Luftfeuchtigkeit
    00:00 +24°C° 0 mm 2 m/S 692 mmHg 79%
    01:00 +23°C° 0 mm 2 m/S 692 mmHg 83%
    02:00 +23°C° 0 mm 2 m/S 692 mmHg 84%
    03:00 +21°C° 0 mm 2 m/S 692 mmHg 85%
    04:00 +21°C° 0 mm 2 m/S 692 mmHg 86%
    05:00 +21°C° 0 mm 2 m/S 692 mmHg 85%
    06:00 +21°C° 0 mm 2 m/S 692 mmHg 83%
    07:00 +21°C° 0 mm 2 m/S 693 mmHg 82%
    08:00 +25°C° 0 mm 2 m/S 693 mmHg 72%
    09:00 +27°C° 0 mm 2 m/S 694 mmHg 62%
    10:00 +29°C° 0 mm 2 m/S 694 mmHg 53%
    11:00 +31°C° 0 mm 2 m/S 694 mmHg 46%
    12:00 +35°C° 0 mm 2 m/S 693 mmHg 39%
    13:00 +36°C° 0 mm 1 m/S 693 mmHg 32%
    14:00 +35°C° 0 mm 1 m/S 692 mmHg 35%
    15:00 +33°C° 0 mm 1 m/S 691 mmHg 38%
    16:00 +32°C° 0 mm 1 m/S 690 mmHg 42%
    17:00 +30°C° 0,1 mm 2 m/S 690 mmHg 47%
    18:00 +29°C° 0,1 mm 2 m/S 691 mmHg 52%
    19:00 +28°C° 0,1 mm 2 m/S 691 mmHg 57%
    20:00 +27°C° 0 mm 2 m/S 691 mmHg 61%
    21:00 +26°C° 0 mm 2 m/S 692 mmHg 66%
    22:00 +25°C° 0 mm 2 m/S 692 mmHg 71%
    23:00 +24°C° 0 mm 2 m/S 692 mmHg 75%

    übermorgen, 25 September, Montag

    Zeit Temperatur Niederschläge Wind Luftdruck Luftfeuchtigkeit
    00:00 +24°C° 0 mm 2 m/S 691 mmHg 79%
    01:00 +23°C° 0 mm 2 m/S 691 mmHg 84%
    02:00 +21°C° 0 mm 2 m/S 691 mmHg 84%
    03:00 +21°C° 0 mm 2 m/S 691 mmHg 85%
    04:00 +21°C° 0 mm 3 m/S 691 mmHg 85%
    05:00 +21°C° 0 mm 2 m/S 691 mmHg 84%
    06:00 +21°C° 0 mm 2 m/S 691 mmHg 83%
    07:00 +21°C° 0 mm 2 m/S 692 mmHg 81%
    08:00 +24°C° 0 mm 2 m/S 692 mmHg 73%
    09:00 +26°C° 0 mm 2 m/S 693 mmHg 64%
    10:00 +28°C° 0 mm 2 m/S 693 mmHg 55%
    11:00 +30°C° 0 mm 2 m/S 693 mmHg 49%
    12:00 +32°C° 0 mm 2 m/S 692 mmHg 43%
    13:00 +35°C° 0 mm 2 m/S 691 mmHg 37%
    14:00 +34°C° 0 mm 2 m/S 691 mmHg 38%
    15:00 +34°C° 0 mm 2 m/S 690 mmHg 38%
    16:00 +34°C° 0 mm 2 m/S 689 mmHg 38%
    17:00 +31°C° 0 mm 2 m/S 690 mmHg 42%
    18:00 +29°C° 0 mm 2 m/S 690 mmHg 47%
    19:00 +28°C° 0 mm 2 m/S 690 mmHg 51%
    20:00 +27°C° 0 mm 2 m/S 690 mmHg 56%
    21:00 +26°C° 0 mm 2 m/S 691 mmHg 62%
    22:00 +25°C° 0 mm 2 m/S 691 mmHg 67%
    23:00 +24°C° 0 mm 2 m/S 691 mmHg 71%

    26 September, Dienstag

    Zeit Temperatur Niederschläge Wind Luftdruck Luftfeuchtigkeit
    00:00 +23°C° 0 mm 2 m/S 691 mmHg 76%
    01:00 +21°C° 0 mm 2 m/S 690 mmHg 81%
    02:00 +21°C° 0 mm 2 m/S 690 mmHg 82%
    03:00 +21°C° 0 mm 2 m/S 690 mmHg 84%
    04:00 +20°C° 0 mm 2 m/S 690 mmHg 85%
    05:00 +20°C° 0 mm 2 m/S 690 mmHg 83%
    06:00 +21°C° 0 mm 2 m/S 691 mmHg 81%
    07:00 +21°C° 0 mm 2 m/S 692 mmHg 79%
    08:00 +24°C° 0 mm 2 m/S 692 mmHg 69%
    09:00 +26°C° 0 mm 2 m/S 693 mmHg 59%
    10:00 +29°C° 0 mm 2 m/S 693 mmHg 50%
    11:00 +31°C° 0 mm 2 m/S 692 mmHg 44%
    12:00 +34°C° 0 mm 2 m/S 691 mmHg 38%
    13:00 +36°C° 0 mm 2 m/S 690 mmHg 32%
    14:00 +35°C° 0 mm 2 m/S 690 mmHg 32%
    15:00 +35°C° 0 mm 2 m/S 689 mmHg 33%
    16:00 +35°C° 0 mm 2 m/S 689 mmHg 33%
    17:00 +32°C° 0 mm 2 m/S 689 mmHg 39%
    18:00 +30°C° 0 mm 2 m/S 690 mmHg 44%
    19:00 +28°C° 0 mm 3 m/S 690 mmHg 49%
    20:00 +27°C° 0 mm 2 m/S 690 mmHg 56%
    21:00 +26°C° 0 mm 2 m/S 691 mmHg 63%
    22:00 +24°C° 0 mm 2 m/S 691 mmHg 70%
    23:00 +24°C° 0 mm 2 m/S 691 mmHg 73%

    27 September, Mittwoch

    Zeit Temperatur Niederschläge Wind Luftdruck Luftfeuchtigkeit
    00:00 +23°C° 0 mm 2 m/S 691 mmHg 77%
    01:00 +21°C° 0 mm 2 m/S 690 mmHg 81%
    02:00 +21°C° 0 mm 2 m/S 690 mmHg 82%
    03:00 +21°C° 0 mm 2 m/S 690 mmHg 83%
    04:00 +20°C° 0 mm 2 m/S 690 mmHg 84%
    05:00 +21°C° 0 mm 2 m/S 691 mmHg 81%
    06:00 +21°C° 0 mm 2 m/S 691 mmHg 79%
    07:00 +21°C° 0 mm 2 m/S 692 mmHg 77%
    08:00 +24°C° 0 mm 2 m/S 692 mmHg 68%
    09:00 +26°C° 0 mm 2 m/S 693 mmHg 58%
    10:00 +29°C° 0 mm 2 m/S 693 mmHg 49%
    11:00 +31°C° 0 mm 2 m/S 692 mmHg 43%
    12:00 +34°C° 0 mm 2 m/S 692 mmHg 37%
    13:00 +36°C° 0 mm 2 m/S 691 mmHg 32%
    14:00 +35°C° 0 mm 2 m/S 690 mmHg 34%
    15:00 +34°C° 0 mm 2 m/S 690 mmHg 35%
    16:00 +32°C° 0 mm 2 m/S 690 mmHg 37%
    17:00 +31°C° 0,1 mm 2 m/S 690 mmHg 42%
    18:00 +29°C° 0,1 mm 2 m/S 690 mmHg 46%
    19:00 +28°C° 0,1 mm 2 m/S 691 mmHg 51%
    20:00 +27°C° 0,1 mm 2 m/S 691 mmHg 56%
    21:00 +26°C° 0,1 mm 2 m/S 691 mmHg 62%
    22:00 +25°C° 0,1 mm 2 m/S 692 mmHg 67%
    23:00 +24°C° 0 mm 2 m/S 691 mmHg 71%

    28 September, Donnerstag

    Zeit Temperatur Niederschläge Wind Luftdruck Luftfeuchtigkeit
    00:00 +23°C° 0 mm 2 m/S 691 mmHg 75%
    01:00 +23°C° 0 mm 2 m/S 691 mmHg 79%
    02:00 +21°C° 0 mm 2 m/S 691 mmHg 81%
    03:00 +21°C° 0 mm 2 m/S 691 mmHg 83%
    04:00 +21°C° 0 mm 1 m/S 691 mmHg 85%
    05:00 +22°C° 0 mm 1 m/S 692 mmHg 83%
    06:00 +22°C° 0 mm 1 m/S 692 mmHg 81%
    07:00 +22°C° 0 mm 1 m/S 692 mmHg 79%
    08:00 +24°C° 0 mm 2 m/S 693 mmHg 68%
    09:00 +27°C° 0 mm 2 m/S 693 mmHg 57%
    10:00 +29°C° 0 mm 2 m/S 694 mmHg 46%
    11:00 +31°C° 0 mm 2 m/S 693 mmHg 42%
    12:00 +32°C° 0 mm 2 m/S 692 mmHg 38%
    13:00 +33°C° 0 mm 1 m/S 692 mmHg 34%
    14:00 +34°C° 0 mm 2 m/S 691 mmHg 35%
    15:00 +34°C° 0 mm 2 m/S 691 mmHg 35%
    16:00 +32°C° 0 mm 2 m/S 690 mmHg 35%
    17:00 +31°C° 0 mm 2 m/S 690 mmHg 40%
    18:00 +29°C° 0 mm 1 m/S 690 mmHg 45%
    19:00 +27°C° 0 mm 1 m/S 690 mmHg 49%
    20:00 +26°C° 0 mm 2 m/S 691 mmHg 54%
    21:00 +25°C° 0 mm 2 m/S 691 mmHg 58%
    22:00 +25°C° 0 mm 2 m/S 692 mmHg 63%
    23:00 +24°C° 0 mm 1 m/S 691 mmHg 68%
    Mehr zeigen